SCP
0 0 0 0 0 0 0 0 0 0 0 0 0 0 0 0 0 0 0 0 0 0 0 0 0 0 0 0 0 0 0 0 0 0 0 0 0 0 0 0 0 0 0 0 0 0 0 0 0 0 0 0 0 0
0 0 0 0 0 0 0 0 0 0 0 0 0 0 0 0 0 0 0 0 0 0 0 0 0 0 0 0 0 0 0 0 0 0 0 0 0 0 0 0 0 0 0 0 0 0 1 0 1 0 0 0 0 0
0 0 0 0 0 0 0 0 0 0 0 0 0 0 0 0 0 0 0 0 0 0 0 0 0 0 0 0 0 0 0 0 0 0 0 0 0 0 0 0 0 0 0 0 0 0 0 0 0 0 0 0 0 0
0 0 0 0 0 0 0 0 0 0 0 0 0 0 0 0 0 0 0 0 0 0 0 0 0 0 0 0 0 0 0 0 0 0 0 0 0 0 0 0 0 0 0 0 0 0 0 0 0 0 0 0 0 0
0 0 0 0 0 0 0 0 0 0 0 0 0 0 0 0 0 0 0 0 0 0 0 0 0 0 0 0 0 0 0 0 0 0 0 0 0 0 0 0 0 0 0 0 0 0 0 0 0 0 0 0 0 0
0 0 0 0 0 0 0 0 0 0 0 0 0 0 0 0 0 0 0 0 0 0 0 0 0 0 0 0 0 0 0 0 0 0 0 0 0 0 0 0 0 0 0 0 0 0 0 0 0 0 0 0 0 0
0 0 0 0 0 0 0 0 0 0 0 -0 -0 0 0 0 0 0 0 0 0 0 0 0 0 0 0 0 0 0 0 0 0 0 0 0 0 0 0 0 0 0 0 0 0 0 0 0 0 0 0 0 0 0
0 0 0 -0 -0 -0 -0 0 0 0 0 0 0 0 0 0 0 0 0 0 0 0 0 0 0 0 0 0 0 0 0 0 0 0 0 0 0 0 0 0 0 0 0 0 0 0 0 0 0 0 0 0 0 0
0 0 0 0 0 0 0 0 0 0 0 0 0 0 0 0 0 0 0 0 0 0 0 0 0 0 0 0 0 0 0 0 0 0 0 0 0 0 0 0 0 0 0 0 0 0 0 0 0 0 0 0 0 0
0 0 0 0 0 0 0 0 0 0 0 0 0 0 0 0 0 0 0 0 0 0 0 0 0 0 0 0 0 0 0 0 0 0 0 0 0 0 0 0 0 0 0 0 0 0 0 0 0 0 0 0 0 0
0 0 0 0 -0 -0 -0 0 0 0 0 0 0 0 0 0 0 0 0 0 0 0 0 0 0 0 0 0 0 0 0 0 0 0 0 0 0 0 0 0 0 0 0 0 0 0 0 0 0 0 0 0 0 0
0 0 -0 -0 -0 0 -0 0 0 -0 0 0 0 0 0 0 0 0 0 0 0 0 0 0 0 0 0 0 0 0 0 0 0 0 0 0 0 0 0 -0 -0 0 0 0 0 0 0 0 0 0 0 0 0 0
-0 -0 -0 -0 -0 0 0 0 0 0 0 0 0 0 0 0 0 0 0 0 0 0 -0 -0 -0 0 -0 -0 0 0 0 0 0 0 0 -0 -0 -0 -0 -0 0 -0 0 0 0 -0 -0 0 0 0 0 0 0 0
0 0 0 0 0 0 0 0 0 0 -0 0 0 0 0 0 0 0 -0 -0 0 -0 0 0 -0 -0 0 0 0 0 0 0 0 0 -0 0 0 -0 -0 -0 -0 -0 -0 0 0 -0 0 0 0 0 0 0 0 0
0 0 0 0 0 -0 0 0 -0 -0 0 -0 0 -0 -0 -0 0 0 0 0 -0 -0 0 -0 -0 0 0 -0 0 0 -0 -0 -0 0 -0 -0 0 0 -0 -0 0 0 -0 0 0 0 0 0 0 0 0 0 0 0
0 0 0 -0 -0 -0 -0 -0 -0 -0 -0 -0 0 0 0 0 0 0 0 0 -0 -0 -0 -0 -0 -0 0 0 0 -0 -0 -0 -0 -0 -0 -0 -0 -0 0 0 0 0 -0 0 0 0 0 0 0 0 0 0 0 0
-0 0 -0 -0 -0 -0 -0 0 0 0 0 0 0 0 0 0 -0 -0 -0 -0 -0 -0 0 -0 0 0 0 0 -0 -0 0 0 0 0 -0 -0 0 0 0 0 0 -0 -0 0 0 0 0 0 0 0 0 0 0 0
0 0 0 -0 -0 -0 -0 -0 0 0 0 0 0 0 0 0 -0 -0 -0 -0 -0 -0 0 0 -0 0 0 -0 -0 0 0 0 0 -0 -0 0 0 0 0 -0 -0 -0 0 0 0 0 0 0 0 0 0 0 0 0
0 0 0 0 0 0 0 0 0 0 0 0 0 -0 -0 -0 -0 0 -0 -0 -0 0 0 0 0 0 -0 -0 -0 -0 0 0 0 0 0 0 0 0 -0 -0 0 0 0 0 0 0 0 0 0 0 0 0 0 0
0 0 0 0 -0 0 0 0 0 0 0 0 -0 0 0 0 -0 -0 -0 -0 -0 0 0 0 0 -0 -0 -0 0 0 0 0 0 -0 -0 -0 0 -0 -0 0 0 0 0 0 0 0 0 0 0 0 0 0 0 0
0 -0 -0 -0 -0 0 0 0 0 0 -0 0 -0 -0 -0 -0 0 0 0 0 0 0 0 0 0 -0 -0 -0 -0 -0 -0 -0 0 0 0 -0 0 0 0 0 0 0 0 0 0 0 0 0 0 0 0 0 0 0
0 0 0 0 0 0 0 0 0 0 0 0 0 0 0 0 0 0 0 0 0 0 0 0 -0 -0 -0 -0 -0 -0 -0 -0 -0 0 0 0 0 0 0 0 0 0 0 0 0 0 0 0 0 0 -0 0 0 0
0 0 0 0 0 0 0 0 0 0 0 0 0 0 0 0 0 0 0 0 0 0 0 0 -0 -0 -0 -0 -0 -0 -0 0 0 0 0 0 0 0 0 0 0 0 0 0 0 0 0 0 0 0 0 0 0 0
0 0 0 0 0 0 0 0 0 0 0 0 0 0 0 0 0 0 0 0 0 0 0 -0 -0 -0 0 -0 -0 0 0 0 0 0 0 0 0 0 0 0 0 0 0 -0 0 0 0 0 0 0 0 -0 0 0
0 0 0 0 0 0 0 0 0 0 0 0 0 0 0 0 0 0 0 0 0 0 -0 -0 0 0 0 0 0 0 0 0 0 0 0 0 0 0 0 0 0 0 0 -0 0 0 0 0 0 0 0 0 0 0
0 0 0 0 0 0 0 0 0 0 0 0 0 0 0 0 0 0 0 0 0 0 0 0 0 0 0 0 0 0 0 0 0 0 0 0 0 0 0 0 0 0 0 -0 0 0 0 0 0 0 -0 0 0 0
0 0 0 0 0 0 0 0 0 0 0 0 0 0 0 0 0 0 0 0 0 0 0 0 0 0 0 0 0 0 0 0 0 0 0 0 0 0 0 0 0 0 0 0 0 0 0 0 0 -0 -0 0 0 0
0 0 0 0 0 0 0 0 0 0 0 0 0 0 0 0 0 0 0 0 0 0 0 0 0 0 0 0 0 0 0 0 0 0 0 0 0 0 0 0 0 0 0 0 0 0 0 0 0 -0 -0 -0 -0 -0
0 0 0 0 0 0 0 0 0 0 0 0 0 0 0 0 0 0 0 0 0 0 0 0 0 0 0 0 0 0 0 0 0 0 0 0 0 0 0 0 0 0 0 0 0 0 0 0 0 0 -0 -0 0 0
0 0 0 0 0 0 0 0 0 0 0 0 0 0 0 0 0 0 0 -0 0 0 0 0 0 0 0 0 0 0 0 0 0 0 0 0 0 0 0 0 0 0 0 0 0 0 0 0 0 0 0 0 0 -0
0 0 0 0 0 0 0 0 0 0 0 0 0 0 0 0 0 -0 -0 -0 -0 0 0 -0 0 0 0 0 0 0 0 0 0 0 0 0 0 0 0 0 0 0 -0 -0 0 0 0 0 0 0 0 -0 -0 -0
0 -0 -0 -0 0 0 0 0 0 0 0 0 0 0 0 0 -0 0 0 -0 -0 0 -0 -0 0 0 0 0 0 0 0 0 0 0 0 0 0 0 0 0 0 0 0 -0 0 0 0 0 0 0 0 0 0 -0
0 0 0 0 -0 -0 0 0 0 0 0 0 0 0 0 0 -0 0 0 -0 -0 0 -0 -0 0 0 0 0 0 0 0 0 0 0 -0 0 0 0 0 0 0 0 0 0 0 0 0 -0 0 0 -0 -0 -0 -0
Wind_Speed_500mb
72 70 65 61 62 56 42 38 30 29 25 17 17 21 16 11 9 5 12 10 7 13 14 13 14 14 11 14 14 9 9 12 12 12 12 15 14 18 23 28 23 24 18 19 24 33 31 5 13 18 11 12 17 27
54 69 66 67 49 45 44 37 33 30 25 19 15 15 12 9 7 6 6 11 14 13 10 14 15 25 22 17 14 12 10 1 7 8 5 7 12 11 17 22 20 27 25 19 18 11 17 15 14 15 7 14 24 32
30 43 47 45 49 46 45 32 28 25 22 20 17 17 12 8 5 5 4 6 5 14 23 17 14 18 32 35 26 18 20 18 13 14 16 9 13 8 17 23 31 24 12 16 20 24 26 7 14 13 10 24 32 37
30 45 47 46 47 41 28 27 30 26 25 18 14 11 11 14 8 2 3 7 4 9 11 4 13 8 11 21 27 39 23 10 10 14 24 15 17 17 20 26 27 26 15 19 35 37 39 46 33 17 33 38 44 48
42 40 39 41 31 28 30 30 23 25 23 19 16 16 15 13 12 6 10 11 11 7 11 13 24 27 17 33 28 26 35 37 29 27 17 19 28 24 34 28 30 37 36 27 33 36 32 38 47 48 46 49 50 51
36 35 29 31 34 29 23 25 25 21 17 15 14 14 15 16 11 4 6 7 8 11 7 8 8 10 10 13 21 29 37 38 41 36 30 37 49 29 17 26 50 51 55 56 62 57 66 63 50 47 54 55 44 50
38 38 35 30 28 30 25 21 18 17 15 13 11 11 12 10 8 7 4 5 6 10 3 11 7 5 10 10 14 21 27 29 33 42 49 47 42 38 27 35 57 59 53 50 52 51 61 57 60 51 49 53 51 52
37 36 32 27 23 20 20 20 18 18 17 13 12 11 13 13 10 8 13 17 8 3 7 7 6 9 8 14 15 15 18 25 26 35 38 35 46 51 33 66 71 69 67 71 69 66 73 67 64 63 58 52 52 52
30 26 24 21 20 19 18 19 20 16 13 10 8 9 9 8 5 5 7 5 15 7 7 7 8 4 1 15 13 15 19 18 40 29 41 38 31 34 51 73 76 73 67 62 57 60 58 58 57 56 56 56 58 54
27 24 21 19 18 18 19 21 18 15 13 12 10 6 8 9 13 12 8 6 8 11 12 14 21 13 8 11 9 9 12 12 18 26 38 26 34 73 78 77 80 78 75 67 64 61 58 60 60 60 59 53 58 55
22 19 16 13 13 16 20 19 21 17 11 10 8 6 5 13 12 7 8 10 11 9 14 15 20 17 13 12 10 9 7 7 9 16 16 18 27 32 20 22 33 32 35 42 50 56 57 54 53 51 54 54 56 53
16 13 12 11 12 12 23 22 21 16 10 11 7 9 11 9 8 7 7 8 10 8 15 12 13 17 13 15 12 8 8 7 14 2 7 12 17 7 10 14 14 17 24 38 37 36 43 51 54 55 56 57 53 48
9 8 10 11 11 13 16 18 20 16 14 12 7 8 6 6 9 11 15 9 8 13 14 14 9 8 9 17 9 7 13 14 9 8 18 22 5 4 13 28 36 44 52 44 47 44 49 52 51 54 52 44 41 40
12 11 7 7 10 14 15 16 18 20 11 7 9 7 9 10 11 12 14 4 13 12 10 11 9 8 10 9 10 10 12 8 9 20 30 0 6 20 30 41 48 47 46 47 43 47 51 48 48 44 41 38 35 28
14 16 18 18 14 8 10 17 20 21 8 7 8 9 15 23 14 15 20 22 22 18 22 18 12 14 8 9 7 9 9 12 12 18 12 6 16 27 43 49 48 47 45 56 45 59 50 40 41 37 32 34 33 28
14 13 13 13 11 8 8 15 23 16 7 8 13 14 21 16 21 25 29 31 26 23 12 10 7 6 12 7 11 14 9 14 14 12 28 35 39 45 53 51 55 54 53 56 62 51 39 34 35 32 28 34 36 36
7 8 10 10 9 7 9 9 11 9 10 10 16 27 36 32 26 27 25 25 18 19 14 10 9 13 7 9 9 9 15 20 34 48 48 44 51 48 55 61 56 59 63 56 46 37 35 35 32 31 33 37 41 42
5 6 7 5 5 6 9 12 8 10 15 25 24 25 28 33 34 35 32 28 26 32 28 16 14 10 11 27 30 26 46 46 53 52 56 56 56 59 58 54 61 67 60 52 39 35 32 27 30 37 40 46 54 56
6 8 8 7 8 6 6 10 12 11 21 23 30 34 32 35 37 40 40 37 34 35 24 12 14 12 18 31 37 51 56 57 52 65 70 64 62 54 63 57 63 61 56 44 30 18 22 30 37 45 54 59 65 66
3 5 1 4 6 6 7 8 11 12 12 11 24 27 27 31 34 35 33 30 27 16 17 13 25 53 54 59 60 59 55 56 55 60 62 58 55 57 58 59 57 55 42 16 4 10 24 28 36 50 69 73 83 73
4 8 5 6 11 13 9 8 12 13 17 14 21 24 24 26 29 30 32 35 22 10 7 17 35 51 53 57 58 59 61 61 57 50 56 62 59 56 55 55 52 35 12 8 4 17 21 30 42 56 72 84 67 63
10 9 7 8 7 8 11 13 13 14 13 20 22 10 14 9 9 9 14 13 8 10 18 31 47 56 60 53 46 41 44 45 44 46 48 43 49 51 54 50 35 12 7 10 16 19 22 25 38 66 68 57 54 59
4 4 5 6 7 6 8 6 9 7 6 7 9 7 7 7 9 16 6 7 7 31 41 44 51 47 47 40 36 25 22 25 29 27 29 34 41 50 37 23 6 4 8 26 11 10 37 53 65 83 76 68 54 67
8 5 5 4 6 7 9 6 8 8 8 6 5 7 6 7 13 5 5 6 23 52 56 58 51 48 39 31 20 13 7 4 9 20 29 39 38 31 21 13 16 26 37 33 31 53 61 76 81 78 79 66 72 77
3 3 4 7 7 6 6 5 5 5 5 4 6 7 5 9 4 4 5 17 50 62 72 65 54 47 45 27 16 12 10 5 9 24 30 33 35 29 29 28 30 46 43 45 40 41 54 75 74 73 75 76 77 75
4 4 5 4 4 4 7 7 5 5 5 5 5 13 11 7 6 8 10 39 51 68 71 61 54 40 27 22 16 14 13 14 22 32 33 40 43 44 34 38 39 45 42 54 49 53 56 63 71 65 70 73 77 74
5 1 5 7 7 10 9 12 13 6 5 8 7 12 11 12 10 9 42 55 69 65 53 40 35 31 27 23 22 23 23 24 21 21 25 31 35 41 36 26 27 30 41 49 51 45 52 62 63 63 60 63 65 65
6 5 5 6 5 3 7 10 10 12 7 13 14 14 10 12 6 22 46 68 62 57 46 37 36 35 30 26 25 24 24 23 17 19 26 27 32 35 34 37 31 28 29 26 36 52 57 56 58 55 59 57 55 53
3 3 4 6 2 1 13 16 16 12 14 14 6 7 10 16 35 43 58 63 64 63 61 64 50 35 34 36 36 34 30 30 31 31 32 31 29 34 29 28 26 28 34 37 30 32 59 51 63 51 53 54 53 52
3 1 4 5 6 7 9 11 15 10 11 14 8 5 13 20 36 50 59 58 64 61 58 63 59 62 59 52 39 34 32 29 29 31 26 27 25 23 21 22 25 26 28 32 27 34 39 58 62 55 54 53 52 52
3 2 2 5 5 5 5 2 6 8 6 7 6 9 12 13 18 55 57 58 52 56 54 53 59 60 58 58 46 28 33 28 26 23 23 22 21 21 22 21 20 24 29 32 32 44 57 72 60 48 57 55 55 56
3 4 5 4 4 3 3 5 4 2 4 10 14 12 12 10 18 27 50 53 53 58 51 46 49 57 56 50 37 21 32 31 28 23 25 26 28 25 24 24 24 26 29 33 36 47 53 62 54 50 52 58 61 62
3 2 3 5 4 4 2 8 3 1 2 5 9 15 14 9 9 31 41 46 40 44 46 41 39 46 40 46 44 40 39 39 41 36 31 31 29 29 33 30 28 29 30 33 35 38 49 54 52 51 44 56 59 61
Wind_Direction_500mb
241 241 236 240 252 254 235 235 233 224 235 241 271 259 256 256 245 218 248 222 201 256 262 239 226 213 217 246 263 105 231 199 214 239 246 232 252 243 245 260 253 209 215 207 233 250 255 31 230 245 55 49 11 347
237 238 233 239 226 214 219 226 217 219 228 241 242 231 234 242 237 224 251 255 243 251 267 248 243 236 230 233 247 212 316 251 297 267 248 289 240 244 258 252 216 250 263 273 234 234 105 65 76 135 82 7 344 338
229 231 220 210 203 208 216 218 219 211 213 216 224 208 221 233 232 191 256 276 296 278 279 256 256 253 237 228 225 249 235 238 235 260 299 272 255 269 248 238 260 249 266 255 271 253 237 268 282 225 294 311 315 315
193 201 196 201 208 218 213 193 195 200 202 198 190 198 217 217 251 242 239 265 284 288 280 176 261 234 220 215 224 228 231 233 241 247 243 250 252 235 256 273 263 263 279 266 259 264 288 275 274 242 297 300 307 308
186 196 197 200 207 191 183 194 209 196 189 198 210 216 221 212 236 265 263 263 248 254 312 297 289 269 257 241 223 218 222 232 243 237 235 244 257 279 265 267 260 248 253 252 258 276 293 278 288 292 292 293 300 300
167 182 182 162 161 175 181 175 173 171 199 213 209 208 214 223 232 248 250 271 223 199 287 285 304 259 245 217 214 222 224 231 235 245 252 259 253 251 260 257 261 256 251 256 264 268 267 275 273 277 283 288 290 292
137 142 149 157 157 151 152 156 174 184 194 184 176 180 192 203 182 216 312 178 156 162 238 283 252 201 194 219 224 224 222 226 235 245 243 254 256 222 255 264 267 272 265 258 258 266 267 265 270 276 276 284 286 286
129 130 134 138 146 161 172 175 181 177 178 190 196 201 214 219 227 258 245 234 211 275 253 270 271 245 198 234 235 211 224 221 231 243 247 247 253 241 247 257 266 266 265 263 263 263 263 269 271 272 275 277 278 280
135 142 149 156 160 169 173 173 170 179 182 174 174 167 182 204 227 215 200 192 213 241 282 249 278 348 181 247 251 231 238 241 246 236 244 253 253 248 251 255 255 260 263 267 266 264 265 266 269 270 272 272 272 271
121 127 133 144 155 162 166 169 174 172 172 160 144 167 200 189 204 158 176 194 205 216 228 248 250 253 275 248 250 289 225 253 269 254 251 242 255 258 262 262 263 264 265 269 268 267 268 267 269 269 267 269 266 262
114 119 127 136 156 170 174 175 174 174 160 175 180 200 199 174 178 200 213 217 176 231 220 243 250 256 217 260 291 254 275 255 255 261 236 262 265 257 260 273 269 269 270 264 259 262 262 263 268 274 271 270 263 256
112 113 132 137 136 157 180 178 178 178 193 192 177 170 171 199 195 242 220 174 222 251 178 218 234 224 255 235 254 229 252 240 255 326 246 257 270 206 246 290 302 280 295 281 276 276 276 275 270 270 268 269 256 249
99 105 129 137 146 149 163 175 175 185 176 168 193 178 180 174 237 224 202 198 218 199 206 211 230 231 231 232 230 238 231 235 256 228 250 266 48 255 314 315 310 302 301 292 286 280 291 275 266 264 266 260 245 248
107 108 118 161 166 173 179 181 181 181 177 207 186 207 222 197 234 222 248 242 215 254 215 283 274 238 239 218 231 235 236 279 246 249 266 65 252 285 305 309 300 296 291 290 276 290 286 268 261 261 257 245 237 243
111 99 97 100 103 121 189 197 188 191 214 236 210 238 222 238 244 242 240 254 246 251 262 274 232 222 211 240 224 267 242 237 239 275 329 324 297 303 317 318 304 295 293 296 281 290 288 268 259 259 239 233 224 210
124 113 109 104 100 93 104 155 176 195 236 240 235 248 252 251 255 237 239 247 255 258 266 263 262 245 230 235 218 215 248 259 280 340 319 308 309 307 311 315 306 303 302 292 291 289 274 267 258 247 236 218 200 187
159 164 165 153 156 143 135 148 184 219 239 223 239 239 259 280 289 283 272 267 265 238 251 258 238 240 286 246 239 225 252 292 316 316 314 312 313 310 308 309 304 308 309 303 294 277 268 262 250 236 213 199 184 179
157 174 191 217 208 218 211 208 236 243 245 244 250 259 246 251 266 272 269 267 254 250 243 246 259 246 242 265 274 289 296 293 298 311 310 312 308 309 306 303 305 308 306 310 298 280 268 235 216 198 185 179 169 172
229 241 252 234 213 197 228 222 219 257 245 265 266 269 270 270 266 268 268 266 257 249 257 244 250 240 238 261 273 285 297 301 305 305 304 301 301 304 304 309 307 314 316 315 295 259 209 189 186 184 178 181 175 170
236 185 263 208 187 222 243 234 225 258 265 281 276 275 272 267 280 282 274 263 246 209 207 225 247 261 273 279 288 290 288 295 298 294 296 301 304 308 307 311 316 328 328 335 253 177 158 156 160 172 165 164 157 160
218 209 217 259 242 231 258 245 242 246 278 268 287 299 287 283 276 270 269 270 211 222 273 260 272 286 287 288 287 286 284 284 282 283 290 299 305 304 313 329 334 335 348 6 178 156 171 174 167 159 164 158 152 148
211 210 252 268 244 232 252 238 254 284 269 275 295 251 267 268 263 258 285 214 235 211 313 297 307 308 306 305 301 294 288 287 285 285 289 291 294 306 316 325 331 337 188 213 157 151 174 186 174 164 155 150 143 145
205 250 248 234 262 252 266 262 258 255 272 291 289 264 243 263 262 309 262 248 251 318 322 318 322 322 311 320 324 321 303 281 277 285 287 295 302 313 331 3 28 148 125 110 107 183 170 166 164 164 158 148 146 139
246 224 242 235 245 271 286 259 251 267 276 265 256 274 279 281 304 262 272 301 335 329 335 339 343 344 351 350 335 343 324 297 299 316 320 316 339 25 44 67 118 130 122 95 105 132 137 135 142 145 151 135 138 137
249 234 247 251 238 260 259 261 242 253 266 280 287 286 302 308 285 292 340 331 333 335 340 350 359 356 342 351 14 39 56 60 341 313 359 3 19 43 81 95 112 136 123 107 96 130 124 135 127 131 136 137 138 138
278 230 219 287 282 247 314 297 318 318 300 287 286 301 309 315 334 358 337 328 331 333 343 347 344 359 28 30 34 48 54 30 10 359 22 33 39 36 78 84 105 141 135 108 107 121 143 139 136 134 135 139 143 140
314 3 279 303 281 293 276 270 265 266 297 350 342 330 358 359 348 338 324 344 342 355 15 32 32 42 53 47 45 40 25 14 14 33 54 36 39 46 53 78 97 106 164 149 133 130 140 148 145 138 136 139 143 144
248 274 325 352 284 290 290 316 6 18 7 349 341 16 13 347 315 324 329 356 10 39 53 48 46 44 46 38 27 20 14 15 20 47 59 58 55 55 54 62 96 115 125 155 175 156 151 152 151 137 138 140 141 143
258 291 293 323 347 348 19 13 23 27 10 4 20 13 338 337 349 351 9 29 40 51 50 47 47 49 53 54 41 42 47 46 52 58 64 62 55 44 47 60 77 111 124 129 110 136 166 156 141 138 139 139 140 140
52 322 301 16 28 57 47 35 33 50 51 61 81 348 340 359 21 24 31 36 37 36 37 42 42 47 43 37 41 48 46 51 60 61 43 39 36 46 55 63 78 98 120 144 139 121 134 147 145 140 137 139 142 144
333 291 305 18 66 81 151 93 19 43 50 40 17 357 351 350 2 24 26 33 35 33 35 37 36 38 34 24 25 49 47 59 56 61 61 54 47 55 72 87 92 104 113 119 130 140 145 151 162 154 154 150 146 145
2 15 341 337 25 24 262 316 322 331 20 26 22 11 5 9 11 13 21 25 26 27 28 28 27 26 24 20 30 49 44 47 47 60 65 77 71 63 75 87 99 109 115 118 125 133 146 160 166 161 161 156 155 155
210 277 311 311 298 302 337 317 248 204 60 32 26 24 26 28 11 5 21 24 24 22 18 19 28 23 13 22 44 60 70 65 62 69 76 74 76 89 95 88 95 103 111 116 125 142 149 156 158 156 158 162 157 161
Wind_Speed_850mb
72 70 65 61 62 56 42 38 30 29 25 17 17 21 16 11 9 5 12 10 7 13 14 13 14 14 11 14 14 9 9 12 12 12 12 15 14 18 23 28 23 24 18 19 24 33 31 5 13 18 11 12 17 27
54 69 66 67 49 45 44 37 33 30 25 19 15 15 12 9 7 6 6 11 14 13 10 14 15 25 22 17 14 12 10 1 7 8 5 7 12 11 17 22 20 27 25 19 18 11 17 15 14 15 7 14 24 32
30 43 47 45 49 46 45 32 28 25 22 20 17 17 12 8 5 5 4 6 5 14 23 17 14 18 32 35 26 18 20 18 13 14 16 9 13 8 17 23 31 24 12 16 20 24 26 7 14 13 10 24 32 37
30 45 47 46 47 41 28 27 30 26 25 18 14 11 11 14 8 2 3 7 4 9 11 4 13 8 11 21 27 39 23 10 10 14 24 15 17 17 20 26 27 26 15 19 35 37 39 46 33 17 33 38 44 48
42 40 39 41 31 28 30 30 23 25 23 19 16 16 15 13 12 6 10 11 11 7 11 13 24 27 17 33 28 26 35 37 29 27 17 19 28 24 34 28 30 37 36 27 33 36 32 38 47 48 46 49 50 51
36 35 29 31 34 29 23 25 25 21 17 15 14 14 15 16 11 4 6 7 8 11 7 8 8 10 10 13 21 29 37 38 41 36 30 37 49 29 17 26 50 51 55 56 62 57 66 63 50 47 54 55 44 50
38 38 35 30 28 30 25 21 18 17 15 13 11 11 12 10 8 7 4 5 6 10 3 11 7 5 10 10 14 21 27 29 33 42 49 47 42 38 27 35 57 59 53 50 52 51 61 57 60 51 49 53 51 52
37 36 32 27 23 20 20 20 18 18 17 13 12 11 13 13 10 8 13 17 8 3 7 7 6 9 8 14 15 15 18 25 26 35 38 35 46 51 33 66 71 69 67 71 69 66 73 67 64 63 58 52 52 52
30 26 24 21 20 19 18 19 20 16 13 10 8 9 9 8 5 5 7 5 15 7 7 7 8 4 1 15 13 15 19 18 40 29 41 38 31 34 51 73 76 73 67 62 57 60 58 58 57 56 56 56 58 54
27 24 21 19 18 18 19 21 18 15 13 12 10 6 8 9 13 12 8 6 8 11 12 14 21 13 8 11 9 9 12 12 18 26 38 26 34 73 78 77 80 78 75 67 64 61 58 60 60 60 59 53 58 55
22 19 16 13 13 16 20 19 21 17 11 10 8 6 5 13 12 7 8 10 11 9 14 15 20 17 13 12 10 9 7 7 9 16 16 18 27 32 20 22 33 32 35 42 50 56 57 54 53 51 54 54 56 53
16 13 12 11 12 12 23 22 21 16 10 11 7 9 11 9 8 7 7 8 10 8 15 12 13 17 13 15 12 8 8 7 14 2 7 12 17 7 10 14 14 17 24 38 37 36 43 51 54 55 56 57 53 48
9 8 10 11 11 13 16 18 20 16 14 12 7 8 6 6 9 11 15 9 8 13 14 14 9 8 9 17 9 7 13 14 9 8 18 22 5 4 13 28 36 44 52 44 47 44 49 52 51 54 52 44 41 40
12 11 7 7 10 14 15 16 18 20 11 7 9 7 9 10 11 12 14 4 13 12 10 11 9 8 10 9 10 10 12 8 9 20 30 0 6 20 30 41 48 47 46 47 43 47 51 48 48 44 41 38 35 28
14 16 18 18 14 8 10 17 20 21 8 7 8 9 15 23 14 15 20 22 22 18 22 18 12 14 8 9 7 9 9 12 12 18 12 6 16 27 43 49 48 47 45 56 45 59 50 40 41 37 32 34 33 28
14 13 13 13 11 8 8 15 23 16 7 8 13 14 21 16 21 25 29 31 26 23 12 10 7 6 12 7 11 14 9 14 14 12 28 35 39 45 53 51 55 54 53 56 62 51 39 34 35 32 28 34 36 36
7 8 10 10 9 7 9 9 11 9 10 10 16 27 36 32 26 27 25 25 18 19 14 10 9 13 7 9 9 9 15 20 34 48 48 44 51 48 55 61 56 59 63 56 46 37 35 35 32 31 33 37 41 42
5 6 7 5 5 6 9 12 8 10 15 25 24 25 28 33 34 35 32 28 26 32 28 16 14 10 11 27 30 26 46 46 53 52 56 56 56 59 58 54 61 67 60 52 39 35 32 27 30 37 40 46 54 56
6 8 8 7 8 6 6 10 12 11 21 23 30 34 32 35 37 40 40 37 34 35 24 12 14 12 18 31 37 51 56 57 52 65 70 64 62 54 63 57 63 61 56 44 30 18 22 30 37 45 54 59 65 66
3 5 1 4 6 6 7 8 11 12 12 11 24 27 27 31 34 35 33 30 27 16 17 13 25 53 54 59 60 59 55 56 55 60 62 58 55 57 58 59 57 55 42 16 4 10 24 28 36 50 69 73 83 73
4 8 5 6 11 13 9 8 12 13 17 14 21 24 24 26 29 30 32 35 22 10 7 17 35 51 53 57 58 59 61 61 57 50 56 62 59 56 55 55 52 35 12 8 4 17 21 30 42 56 72 84 67 63
10 9 7 8 7 8 11 13 13 14 13 20 22 10 14 9 9 9 14 13 8 10 18 31 47 56 60 53 46 41 44 45 44 46 48 43 49 51 54 50 35 12 7 10 16 19 22 25 38 66 68 57 54 59
4 4 5 6 7 6 8 6 9 7 6 7 9 7 7 7 9 16 6 7 7 31 41 44 51 47 47 40 36 25 22 25 29 27 29 34 41 50 37 23 6 4 8 26 11 10 37 53 65 83 76 68 54 67
8 5 5 4 6 7 9 6 8 8 8 6 5 7 6 7 13 5 5 6 23 52 56 58 51 48 39 31 20 13 7 4 9 20 29 39 38 31 21 13 16 26 37 33 31 53 61 76 81 78 79 66 72 77
3 3 4 7 7 6 6 5 5 5 5 4 6 7 5 9 4 4 5 17 50 62 72 65 54 47 45 27 16 12 10 5 9 24 30 33 35 29 29 28 30 46 43 45 40 41 54 75 74 73 75 76 77 75
4 4 5 4 4 4 7 7 5 5 5 5 5 13 11 7 6 8 10 39 51 68 71 61 54 40 27 22 16 14 13 14 22 32 33 40 43 44 34 38 39 45 42 54 49 53 56 63 71 65 70 73 77 74
5 1 5 7 7 10 9 12 13 6 5 8 7 12 11 12 10 9 42 55 69 65 53 40 35 31 27 23 22 23 23 24 21 21 25 31 35 41 36 26 27 30 41 49 51 45 52 62 63 63 60 63 65 65
6 5 5 6 5 3 7 10 10 12 7 13 14 14 10 12 6 22 46 68 62 57 46 37 36 35 30 26 25 24 24 23 17 19 26 27 32 35 34 37 31 28 29 26 36 52 57 56 58 55 59 57 55 53
3 3 4 6 2 1 13 16 16 12 14 14 6 7 10 16 35 43 58 63 64 63 61 64 50 35 34 36 36 34 30 30 31 31 32 31 29 34 29 28 26 28 34 37 30 32 59 51 63 51 53 54 53 52
3 1 4 5 6 7 9 11 15 10 11 14 8 5 13 20 36 50 59 58 64 61 58 63 59 62 59 52 39 34 32 29 29 31 26 27 25 23 21 22 25 26 28 32 27 34 39 58 62 55 54 53 52 52
3 2 2 5 5 5 5 2 6 8 6 7 6 9 12 13 18 55 57 58 52 56 54 53 59 60 58 58 46 28 33 28 26 23 23 22 21 21 22 21 20 24 29 32 32 44 57 72 60 48 57 55 55 56
3 4 5 4 4 3 3 5 4 2 4 10 14 12 12 10 18 27 50 53 53 58 51 46 49 57 56 50 37 21 32 31 28 23 25 26 28 25 24 24 24 26 29 33 36 47 53 62 54 50 52 58 61 62
3 2 3 5 4 4 2 8 3 1 2 5 9 15 14 9 9 31 41 46 40 44 46 41 39 46 40 46 44 40 39 39 41 36 31 31 29 29 33 30 28 29 30 33 35 38 49 54 52 51 44 56 59 61
Wind_Direction_850mb
241 241 236 240 252 254 235 235 233 224 235 241 271 259 256 256 245 218 248 222 201 256 262 239 226 213 217 246 263 105 231 199 214 239 246 232 252 243 245 260 253 209 215 207 233 250 255 31 230 245 55 49 11 347
237 238 233 239 226 214 219 226 217 219 228 241 242 231 234 242 237 224 251 255 243 251 267 248 243 236 230 233 247 212 316 251 297 267 248 289 240 244 258 252 216 250 263 273 234 234 105 65 76 135 82 7 344 338
229 231 220 210 203 208 216 218 219 211 213 216 224 208 221 233 232 191 256 276 296 278 279 256 256 253 237 228 225 249 235 238 235 260 299 272 255 269 248 238 260 249 266 255 271 253 237 268 282 225 294 311 315 315
193 201 196 201 208 218 213 193 195 200 202 198 190 198 217 217 251 242 239 265 284 288 280 176 261 234 220 215 224 228 231 233 241 247 243 250 252 235 256 273 263 263 279 266 259 264 288 275 274 242 297 300 307 308
186 196 197 200 207 191 183 194 209 196 189 198 210 216 221 212 236 265 263 263 248 254 312 297 289 269 257 241 223 218 222 232 243 237 235 244 257 279 265 267 260 248 253 252 258 276 293 278 288 292 292 293 300 300
167 182 182 162 161 175 181 175 173 171 199 213 209 208 214 223 232 248 250 271 223 199 287 285 304 259 245 217 214 222 224 231 235 245 252 259 253 251 260 257 261 256 251 256 264 268 267 275 273 277 283 288 290 292
137 142 149 157 157 151 152 156 174 184 194 184 176 180 192 203 182 216 312 178 156 162 238 283 252 201 194 219 224 224 222 226 235 245 243 254 256 222 255 264 267 272 265 258 258 266 267 265 270 276 276 284 286 286
129 130 134 138 146 161 172 175 181 177 178 190 196 201 214 219 227 258 245 234 211 275 253 270 271 245 198 234 235 211 224 221 231 243 247 247 253 241 247 257 266 266 265 263 263 263 263 269 271 272 275 277 278 280
135 142 149 156 160 169 173 173 170 179 182 174 174 167 182 204 227 215 200 192 213 241 282 249 278 348 181 247 251 231 238 241 246 236 244 253 253 248 251 255 255 260 263 267 266 264 265 266 269 270 272 272 272 271
121 127 133 144 155 162 166 169 174 172 172 160 144 167 200 189 204 158 176 194 205 216 228 248 250 253 275 248 250 289 225 253 269 254 251 242 255 258 262 262 263 264 265 269 268 267 268 267 269 269 267 269 266 262
114 119 127 136 156 170 174 175 174 174 160 175 180 200 199 174 178 200 213 217 176 231 220 243 250 256 217 260 291 254 275 255 255 261 236 262 265 257 260 273 269 269 270 264 259 262 262 263 268 274 271 270 263 256
112 113 132 137 136 157 180 178 178 178 193 192 177 170 171 199 195 242 220 174 222 251 178 218 234 224 255 235 254 229 252 240 255 326 246 257 270 206 246 290 302 280 295 281 276 276 276 275 270 270 268 269 256 249
99 105 129 137 146 149 163 175 175 185 176 168 193 178 180 174 237 224 202 198 218 199 206 211 230 231 231 232 230 238 231 235 256 228 250 266 48 255 314 315 310 302 301 292 286 280 291 275 266 264 266 260 245 248
107 108 118 161 166 173 179 181 181 181 177 207 186 207 222 197 234 222 248 242 215 254 215 283 274 238 239 218 231 235 236 279 246 249 266 65 252 285 305 309 300 296 291 290 276 290 286 268 261 261 257 245 237 243
111 99 97 100 103 121 189 197 188 191 214 236 210 238 222 238 244 242 240 254 246 251 262 274 232 222 211 240 224 267 242 237 239 275 329 324 297 303 317 318 304 295 293 296 281 290 288 268 259 259 239 233 224 210
124 113 109 104 100 93 104 155 176 195 236 240 235 248 252 251 255 237 239 247 255 258 266 263 262 245 230 235 218 215 248 259 280 340 319 308 309 307 311 315 306 303 302 292 291 289 274 267 258 247 236 218 200 187
159 164 165 153 156 143 135 148 184 219 239 223 239 239 259 280 289 283 272 267 265 238 251 258 238 240 286 246 239 225 252 292 316 316 314 312 313 310 308 309 304 308 309 303 294 277 268 262 250 236 213 199 184 179
157 174 191 217 208 218 211 208 236 243 245 244 250 259 246 251 266 272 269 267 254 250 243 246 259 246 242 265 274 289 296 293 298 311 310 312 308 309 306 303 305 308 306 310 298 280 268 235 216 198 185 179 169 172
229 241 252 234 213 197 228 222 219 257 245 265 266 269 270 270 266 268 268 266 257 249 257 244 250 240 238 261 273 285 297 301 305 305 304 301 301 304 304 309 307 314 316 315 295 259 209 189 186 184 178 181 175 170
236 185 263 208 187 222 243 234 225 258 265 281 276 275 272 267 280 282 274 263 246 209 207 225 247 261 273 279 288 290 288 295 298 294 296 301 304 308 307 311 316 328 328 335 253 177 158 156 160 172 165 164 157 160
218 209 217 259 242 231 258 245 242 246 278 268 287 299 287 283 276 270 269 270 211 222 273 260 272 286 287 288 287 286 284 284 282 283 290 299 305 304 313 329 334 335 348 6 178 156 171 174 167 159 164 158 152 148
211 210 252 268 244 232 252 238 254 284 269 275 295 251 267 268 263 258 285 214 235 211 313 297 307 308 306 305 301 294 288 287 285 285 289 291 294 306 316 325 331 337 188 213 157 151 174 186 174 164 155 150 143 145
205 250 248 234 262 252 266 262 258 255 272 291 289 264 243 263 262 309 262 248 251 318 322 318 322 322 311 320 324 321 303 281 277 285 287 295 302 313 331 3 28 148 125 110 107 183 170 166 164 164 158 148 146 139
246 224 242 235 245 271 286 259 251 267 276 265 256 274 279 281 304 262 272 301 335 329 335 339 343 344 351 350 335 343 324 297 299 316 320 316 339 25 44 67 118 130 122 95 105 132 137 135 142 145 151 135 138 137
249 234 247 251 238 260 259 261 242 253 266 280 287 286 302 308 285 292 340 331 333 335 340 350 359 356 342 351 14 39 56 60 341 313 359 3 19 43 81 95 112 136 123 107 96 130 124 135 127 131 136 137 138 138
278 230 219 287 282 247 314 297 318 318 300 287 286 301 309 315 334 358 337 328 331 333 343 347 344 359 28 30 34 48 54 30 10 359 22 33 39 36 78 84 105 141 135 108 107 121 143 139 136 134 135 139 143 140
314 3 279 303 281 293 276 270 265 266 297 350 342 330 358 359 348 338 324 344 342 355 15 32 32 42 53 47 45 40 25 14 14 33 54 36 39 46 53 78 97 106 164 149 133 130 140 148 145 138 136 139 143 144
248 274 325 352 284 290 290 316 6 18 7 349 341 16 13 347 315 324 329 356 10 39 53 48 46 44 46 38 27 20 14 15 20 47 59 58 55 55 54 62 96 115 125 155 175 156 151 152 151 137 138 140 141 143
258 291 293 323 347 348 19 13 23 27 10 4 20 13 338 337 349 351 9 29 40 51 50 47 47 49 53 54 41 42 47 46 52 58 64 62 55 44 47 60 77 111 124 129 110 136 166 156 141 138 139 139 140 140
52 322 301 16 28 57 47 35 33 50 51 61 81 348 340 359 21 24 31 36 37 36 37 42 42 47 43 37 41 48 46 51 60 61 43 39 36 46 55 63 78 98 120 144 139 121 134 147 145 140 137 139 142 144
333 291 305 18 66 81 151 93 19 43 50 40 17 357 351 350 2 24 26 33 35 33 35 37 36 38 34 24 25 49 47 59 56 61 61 54 47 55 72 87 92 104 113 119 130 140 145 151 162 154 154 150 146 145
2 15 341 337 25 24 262 316 322 331 20 26 22 11 5 9 11 13 21 25 26 27 28 28 27 26 24 20 30 49 44 47 47 60 65 77 71 63 75 87 99 109 115 118 125 133 146 160 166 161 161 156 155 155
210 277 311 311 298 302 337 317 248 204 60 32 26 24 26 28 11 5 21 24 24 22 18 19 28 23 13 22 44 60 70 65 62 69 76 74 76 89 95 88 95 103 111 116 125 142 149 156 158 156 158 162 157 161